Regional Weather Roundup
Issued by NWS

Home | Current Version | Previous Version | Graphics & Text | Print | Product List | Glossary On
Versions: 1 2 3 4 5 6 7 8 9 10 11 12 13 14 15 16 17 18 19 20 21 22 23 24 25 26 27
000
ASUS45 KCYS 311210
RWRWY

WYOMING REGIONAL WEATHER ROUNDUP
NATIONAL WEATHER SERVICE CHEYENNE WY
600 AM MDT FRI OCT 31 2014

NOTE:  "FAIR" INDICATES FEW OR NO CLOUDS BELOW 12,000 FEET
WITH NO SIGNIFICANT WEATHER AND/OR OBSTRUCTIONS TO VISIBILITY.

WYZ001-311300-
YELLOWSTONE NATIONAL PARK

CITY           SKY/WX    TMP DP  RH WIND       PRES   REMARKS
LK YELLOWSTONE   N/A     28  27  96 NW3       30.19
6HR MIN TEMP:  27; 6HR MAX TEMP:  30;

W YELLOWSTONE  NOT AVBL

$$
WYZ002>013-054>058-071-098>099-311300-
NORTHERN WYOMING

CITY           SKY/WX    TMP DP  RH WIND       PRES   REMARKS
JACKSON        MOCLDY    27  27 100 N3        30.17F
CODY           PTCLDY    39  28  65 E3        30.07
GREYBULL       MOCLDY    32  22  66 CALM      30.09F
6HR MIN TEMP:  32; 6HR MAX TEMP:  43;

WORLAND        MOCLDY    33  22  63 CALM      30.09F
6HR MIN TEMP:  33; 6HR MAX TEMP:  40;

SHERIDAN       CLOUDY    36  27  69 SW5       30.09F WCI  32
6HR MIN TEMP:  35; 6HR MAX TEMP:  47;

BUFFALO        CLOUDY    37  25  61 SE18      30.12F WCI  27
6HR MIN TEMP:  37; 6HR MAX TEMP:  45;

GILLETTE       MOCLDY    33  28  81 S24       30.20F WCI  20
6HR MIN TEMP:  33; 6HR MAX TEMP:  38;

HULETT         FAIR      30  28  93 CALM      30.25
NEWCASTLE      FAIR      32  28  86 SE14G20   30.34  WCI  22

$$
WYZ014>020-022>026-101>103-311300-
CENTRAL WYOMING

CITY           SKY/WX    TMP DP  RH WIND       PRES   REMARKS
BIG PINEY      MOCLDY    23  19  85 E3        30.22F
6HR MIN TEMP:  21; 6HR MAX TEMP:  31;

PINEDALE       MOSUNNY   23  23 100 W7        30.23  WCI  15
DUBOIS         FAIR      32  25  74 NW12      30.19F WCI  23
LANDER         MOCLDY    37  27  67 CALM      30.16F
6HR MIN TEMP:  34; 6HR MAX TEMP:  42;

RIVERTON       CLOUDY    35  25  66 NW5       30.16F WCI  31
6HR MIN TEMP:  34; 6HR MAX TEMP:  39;

CASPER         MOCLDY    28  24  85 E3        30.21F
6HR MIN TEMP:  24; 6HR MAX TEMP:  32;

DOUGLAS        CLEAR     33  29  85 SE20      30.26F WCI  21
6HR MIN TEMP:  33; 6HR MAX TEMP:  39;


$$
WYZ021-027>030-104>119-311300-
SOUTHERN WYOMING

CITY           SKY/WX    TMP DP  RH WIND       PRES   REMARKS
EVANSTON       MOCLDY    39  21  48 E12       30.17F WCI  32
6HR MIN TEMP:  39; 6HR MAX TEMP:  48;

KEMMERER       CLOUDY    36  27  69 N5        30.20F WCI  32
FORT BRIDGER   FAIR      34  26  71 W3        30.22S
ROCK SPRINGS   PTCLDY    38  24  57 CALM      30.19F
6HR MIN TEMP:  36; 6HR MAX TEMP:  45;

DIXON          FAIR      36  26  67 CALM      30.26S
RAWLINS        PTCLDY    22  16  78 CALM      30.25F
6HR MIN TEMP:  22; 6HR MAX TEMP:  35;

SARATOGA       FAIR      37  27  65 SE10G17   30.26F WCI  30
LARAMIE        PTCLDY    31  23  72 S17       30.29S WCI  19
6HR MIN TEMP:  30; 6HR MAX TEMP:  38;

CHEYENNE       PTCLDY    31  26  82 S9        30.34S WCI  23
6HR MIN TEMP:  31; 6HR MAX TEMP:  36;

TORRINGTON     PTCLDY    30  28  92 E12       30.36F WCI  20
6HR MIN TEMP:  29; 6HR MAX TEMP:  34;

PINE BLUFFS    FAIR      30  28  93 S7        30.37S WCI  23

$$



USA.gov is the U.S. government's official web portal to all federal, state and local government web resources and services.